AAL1294 KORD-KPSP

Flight info

Callsign AAL1294
Flight time N/A
Altitude 34000
Route PEKUE PIPPN ROTTN LEFAM Q90 DAAYE TBC PLNDL Q86 YORRK RDBUL1
Aircraft A321/M-SDE3FGHIRWY/LB1

Departure

Time 2026-05-06 18:38
Airport Chicago O'Hare International Airport (KORD)

Arrival

Time N/A
Airport Palm Springs International Airport (KPSP)
Time Latitude Longitude Altitude Speed Heading
2026-05-06 17:59 41.97359 -87.89977 669 ft 0 kts 278°
2026-05-06 18:22 41.97358 -87.89957 667 ft 4 kts 222°
2026-05-06 18:22 41.97379 -87.89942 666 ft 4 kts 213°
2026-05-06 18:23 41.97395 -87.89925 669 ft 4 kts 240°
2026-05-06 18:23 41.97400 -87.89894 669 ft 4 kts 286°
2026-05-06 18:23 41.97389 -87.89864 664 ft 4 kts 317°
2026-05-06 18:23 41.97370 -87.89845 668 ft 4 kts 335°
2026-05-06 18:24 41.97347 -87.89837 668 ft 4 kts 21°
2026-05-06 18:24 41.97334 -87.89855 665 ft 4 kts 89°
2026-05-06 18:24 41.97340 -87.89886 666 ft 4 kts 137°
2026-05-06 18:24 41.97361 -87.89907 669 ft 4 kts 145°
2026-05-06 18:25 41.97373 -87.89918 667 ft 0 kts 145°
2026-05-06 18:34 41.97366 -87.89911 668 ft 5 kts 145°
2026-05-06 18:34 41.97318 -87.89866 667 ft 12 kts 145°
2026-05-06 18:34 41.97268 -87.89760 669 ft 17 kts 70°
2026-05-06 18:35 41.97342 -87.89589 667 ft 24 kts 43°
2026-05-06 18:35 41.97495 -87.89522 669 ft 24 kts
2026-05-06 18:35 41.97661 -87.89525 669 ft 23 kts 358°
2026-05-06 18:35 41.97819 -87.89524 669 ft 23 kts 360°
2026-05-06 18:36 41.97962 -87.89477 668 ft 22 kts 40°
2026-05-06 18:36 41.98064 -87.89325 668 ft 22 kts 51°
2026-05-06 18:36 41.98125 -87.89152 668 ft 19 kts 118°
2026-05-06 18:36 41.98135 -87.89061 669 ft 9 kts 51°
2026-05-06 18:37 41.98175 -87.88994 668 ft 11 kts 50°
2026-05-06 18:37 41.98231 -87.88939 669 ft 19 kts 24°
2026-05-06 18:37 41.98380 -87.89030 668 ft 10 kts 261°
2026-05-06 18:37 41.98391 -87.89256 669 ft 55 kts 269°
2026-05-06 18:38 41.98390 -87.90067 671 ft 117 kts 270°
2026-05-06 18:38 41.98389 -87.91379 697 ft 163 kts 270°
2026-05-06 18:38 41.98395 -87.92910 1354 ft 162 kts 270°
2026-05-06 18:38 41.98393 -87.94441 2191 ft 161 kts 270°
2026-05-06 18:39 41.98285 -87.95994 2689 ft 177 kts 257°
2026-05-06 18:39 41.97940 -87.97669 2952 ft 201 kts 255°
2026-05-06 18:39 41.97532 -87.99580 3243 ft 223 kts 255°
2026-05-06 18:40 41.96599 -88.03879 4318 ft 247 kts 255°
2026-05-06 18:40 41.96114 -88.06104 5087 ft 249 kts 255°
2026-05-06 18:40 41.95627 -88.08346 5858 ft 251 kts 255°
2026-05-06 18:40 41.95136 -88.10607 6615 ft 253 kts 255°
2026-05-06 18:41 41.94637 -88.12900 7354 ft 256 kts 255°
2026-05-06 18:41 41.94134 -88.15205 8089 ft 259 kts 255°
2026-05-06 18:41 41.93627 -88.17530 8845 ft 261 kts 255°
2026-05-06 18:41 41.93113 -88.19889 9570 ft 264 kts 255°
2026-05-06 18:42 41.92595 -88.22269 10237 ft 267 kts 255°
2026-05-06 18:42 41.92060 -88.24742 10445 ft 289 kts 255°
2026-05-06 18:42 41.91474 -88.27443 10588 ft 310 kts 255°
2026-05-06 18:42 41.90862 -88.30249 11056 ft 317 kts 255°
2026-05-06 18:43 41.90237 -88.33098 11733 ft 318 kts 255°
2026-05-06 18:43 41.89611 -88.35943 12466 ft 317 kts 255°
2026-05-06 18:43 41.88983 -88.38788 13177 ft 317 kts 255°
2026-05-06 18:43 41.88371 -88.41562 13887 ft 317 kts 255°
2026-05-06 18:44 41.87743 -88.44412 14510 ft 318 kts 255°
2026-05-06 18:44 41.87116 -88.47261 15103 ft 319 kts 255°
2026-05-06 18:44 41.86486 -88.50115 15699 ft 320 kts 255°
2026-05-06 18:44 41.85853 -88.52991 16289 ft 322 kts 255°
2026-05-06 18:45 41.85218 -88.55873 16875 ft 323 kts 255°
2026-05-06 18:45 41.84577 -88.58767 17452 ft 325 kts 254°
2026-05-06 18:45 41.83930 -88.61676 18043 ft 326 kts 255°
2026-05-06 18:45 41.83491 -88.63658 18419 ft 327 kts 255°
2026-05-06 18:46 41.82620 -88.67583 19091 ft 329 kts 254°
2026-05-06 18:46 41.81964 -88.70522 19607 ft 330 kts 254°
2026-05-06 18:46 41.81305 -88.73466 20136 ft 331 kts 254°
2026-05-06 18:46 41.80649 -88.76392 20652 ft 331 kts 253°
2026-05-06 18:47 41.79980 -88.79385 21191 ft 332 kts 253°
2026-05-06 18:47 41.79451 -88.82357 21692 ft 333 kts 259°
2026-05-06 18:47 41.79058 -88.85427 22181 ft 334 kts 259°
2026-05-06 18:47 41.78662 -88.88498 22667 ft 335 kts 259°
2026-05-06 18:48 41.78261 -88.91586 23128 ft 336 kts 258°
2026-05-06 18:48 41.77856 -88.94675 23588 ft 337 kts 258°
2026-05-06 18:48 41.77447 -88.97772 23966 ft 338 kts 258°
2026-05-06 18:48 41.77036 -89.00883 24360 ft 339 kts 258°
2026-05-06 18:49 41.76627 -89.03999 24743 ft 340 kts 258°
2026-05-06 18:49 41.76216 -89.07129 25112 ft 341 kts 258°
2026-05-06 18:49 41.75805 -89.10258 25481 ft 342 kts 258°
2026-05-06 18:49 41.75392 -89.13394 25844 ft 343 kts 258°
2026-05-06 18:50 41.74974 -89.16539 26207 ft 343 kts 258°
2026-05-06 18:50 41.74551 -89.19691 26554 ft 344 kts 258°
2026-05-06 18:50 41.74127 -89.22838 26895 ft 345 kts 258°
2026-05-06 18:50 41.73700 -89.26016 27239 ft 347 kts 258°
2026-05-06 18:51 41.73274 -89.29198 27576 ft 348 kts 258°
2026-05-06 18:51 41.72988 -89.31311 27784 ft 348 kts 258°
2026-05-06 18:51 41.72557 -89.34511 28128 ft 349 kts 258°
2026-05-06 18:51 41.72126 -89.37719 28448 ft 350 kts 258°
2026-05-06 18:52 41.71693 -89.40937 28756 ft 352 kts 258°
2026-05-06 18:52 41.71258 -89.44152 29065 ft 353 kts 258°
2026-05-06 18:52 41.70819 -89.47394 29373 ft 354 kts 258°
2026-05-06 18:52 41.70377 -89.50641 29673 ft 355 kts 258°
2026-05-06 18:53 41.69935 -89.53896 29974 ft 357 kts 258°
2026-05-06 18:53 41.69491 -89.57163 30288 ft 357 kts 258°
2026-05-06 18:53 41.69048 -89.60426 30640 ft 355 kts 258°
2026-05-06 18:53 41.68607 -89.63662 30976 ft 354 kts 258°
2026-05-06 18:54 41.68165 -89.66883 31310 ft 352 kts 258°
2026-05-06 18:54 41.67718 -89.70114 31630 ft 351 kts 259°
2026-05-06 18:54 41.67270 -89.73318 31966 ft 350 kts 258°
2026-05-06 18:54 41.66790 -89.76500 32269 ft 349 kts 258°
2026-05-06 18:55 41.66280 -89.79670 32583 ft 347 kts 257°
2026-05-06 18:55 41.65762 -89.82815 32887 ft 346 kts 257°
2026-05-06 18:55 41.65243 -89.85959 33186 ft 345 kts 257°
2026-05-06 18:55 41.64728 -89.89086 33488 ft 344 kts 257°
2026-05-06 18:56 41.64218 -89.92192 33780 ft 343 kts 258°
2026-05-06 18:56 41.63708 -89.95314 34015 ft 343 kts 258°
2026-05-06 18:56 41.63204 -89.98422 34065 ft 340 kts 258°
2026-05-06 18:57 41.62201 -90.04594 34066 ft 339 kts 258°
2026-05-06 18:57 41.61198 -90.10739 34069 ft 339 kts 258°
2026-05-06 18:58 41.60193 -90.16851 34068 ft 339 kts 258°
2026-05-06 18:58 41.59180 -90.23002 34072 ft 339 kts 258°
2026-05-06 18:59 41.58160 -90.29139 34075 ft 339 kts 257°
2026-05-06 18:59 41.57142 -90.35284 34081 ft 339 kts 257°
2026-05-06 19:00 41.56117 -90.41453 34088 ft 340 kts 257°
2026-05-06 19:00 41.55087 -90.47620 34088 ft 340 kts 257°
2026-05-06 19:01 41.54060 -90.53774 34090 ft 340 kts 257°
2026-05-06 19:01 41.53028 -90.59936 34087 ft 340 kts 257°
2026-05-06 19:02 41.51983 -90.66104 34088 ft 341 kts 257°
2026-05-06 19:02 41.50931 -90.72279 34090 ft 341 kts 257°
2026-05-06 19:03 41.49880 -90.78455 34087 ft 341 kts 257°
2026-05-06 19:03 41.48829 -90.84638 34093 ft 342 kts 257°
2026-05-06 19:04 41.47776 -90.90816 34114 ft 342 kts 257°
2026-05-06 19:04 41.46714 -90.96994 34122 ft 342 kts 257°
2026-05-06 19:05 41.45645 -91.03167 34126 ft 343 kts 257°
2026-05-06 19:05 41.44572 -91.09359 34129 ft 343 kts 257°
2026-05-06 19:06 41.43498 -91.15562 34127 ft 343 kts 257°
2026-05-06 19:06 41.42415 -91.21768 34128 ft 344 kts 257°
2026-05-06 19:07 41.41331 -91.27979 34126 ft 344 kts 257°
2026-05-06 19:07 41.40239 -91.34201 34119 ft 345 kts 257°
2026-05-06 19:08 41.39145 -91.40425 34121 ft 345 kts 257°
2026-05-06 19:08 41.38054 -91.46612 34108 ft 345 kts 257°
2026-05-06 19:09 41.36952 -91.52828 34111 ft 345 kts 257°
2026-05-06 19:09 41.35844 -91.59057 34108 ft 345 kts 257°
2026-05-06 19:10 41.34741 -91.65258 34111 ft 345 kts 257°
2026-05-06 19:10 41.33625 -91.71466 34107 ft 345 kts 256°
2026-05-06 19:11 41.32508 -91.77673 34108 ft 345 kts 257°
2026-05-06 19:11 41.31392 -91.83889 34111 ft 345 kts 257°
2026-05-06 19:12 41.30269 -91.90101 34111 ft 346 kts 257°
2026-05-06 19:12 41.29140 -91.96327 34113 ft 346 kts 256°
2026-05-06 19:13 41.28005 -92.02547 34116 ft 346 kts 256°
2026-05-06 19:13 41.26874 -92.08766 34119 ft 346 kts 256°
2026-05-06 19:14 41.25739 -92.14981 34130 ft 346 kts 256°
2026-05-06 19:14 41.24599 -92.21202 34131 ft 346 kts 256°
2026-05-06 19:15 41.23452 -92.27412 34135 ft 346 kts 256°
2026-05-06 19:15 41.22301 -92.33589 34140 ft 347 kts 256°
2026-05-06 19:16 41.21150 -92.39823 34145 ft 347 kts 256°
2026-05-06 19:16 41.19995 -92.46051 34150 ft 347 kts 256°
2026-05-06 19:17 41.18833 -92.52276 34150 ft 347 kts 256°
2026-05-06 19:17 41.17666 -92.58499 34152 ft 347 kts 256°
2026-05-06 19:18 41.16494 -92.64718 34149 ft 348 kts 256°
2026-05-06 19:18 41.15321 -92.70940 34149 ft 348 kts 256°
2026-05-06 19:19 41.14144 -92.77179 34146 ft 348 kts 256°